CTC-0 (62401 NORAD) Tracking and Keplerian Element Data

This shows tracking and keplerian element data for the satellite.

Feedback or suggestion? Click here.




ElementValue
Catalog62401
NameCTC-0
Epoch Orbit691
Epoch Day34.951753
Epoch Year2025
RAAN120.8704
Inclination44.9912
Eccentricity0.0004773
Argument of Perigee252.6243
Mean Anonmoly107.4116
Mean Motion15.2099008
Decay Rate0.00018804
L11 62401U 24247AA 25034.95175300 .00018804 00000+0 84322-3 0 9998
L22 62401 44.9912 120.8704 0004773 252.6243 107.4116 15.20990080 6911



Live tracking and technical data element details for CTC-0 (NORAD 62401). CTC-0 can be tracked NOW for your location showing map with azimuth and elevation plus other details from your city location.







IsCatalogInMostPopularTable: catalog: 62401, numindb: 9
Update: records affected: 1



GetName: 62401 CTC-0

Hit Count: updated at: Sun, 18 May 2025 22:26:14 GMT